Weather History for Port Lavaca, TX

Change the Weather History Date:

Saturday, November 23, 2013

  Actual Average (KVCT) Record (KVCT)
Temperature  
Mean Temperature 43 °F 60 °F  
Max Temperature 48 °F 72 °F 89 °F (1924)
Min Temperature 39 °F 49 °F 30 °F (1975)
Degree Days  
Heating Degree Days 22 6  
Month to date heating degree days 89  
Since 1 July heating degree days 112  
Cooling Degree Days 0 2  
Month to date cooling degree days 70  
Year to date cooling degree days 3113  
Moisture  
Dew Point 41 °F    
Average Humidity 91    
Maximum Humidity 97    
Minimum Humidity 84    
Precipitation  
Precipitation 0.00 in 0.10 in 1.39 in (1952)
Month to date precipitation 2.54  
Year to date precipitation 38.21  
Snow  
Snow 0.00 in - - ()
Month to date snowfall  
Since 1 July snowfall  
Since 1 September snowfall  
Snow Depth -    
Sea Level Pressure  
Sea Level Pressure 30.33 in    
Wind  
Wind Speed 18 mph (North)    
Max Wind Speed 24 mph    
Max Gust Speed 31 mph    
Visibility 8 miles    
Events Rain    
T = Trace of Precipitation, MM = Missing Value Source: NWS Daily Summary

Daily Weather History Graph

Daily Weather History Graph

Search for Another Location

Airport:

Trip Planner

Search our weather history database for the weather conditions in past years. The results will help you decide how hot, cold, wet, or windy it might be!

Date:

Astronomy

Nov. 23, 2013 Rise Set
Actual Time 6:56 AM CST 5:30 PM CST
Civil Twilight 6:30 AM CST 5:55 PM CST
Nautical Twilight 6:01 AM CST 6:24 PM CST
Astronomical Twilight 5:33 AM CST 6:52 PM CST
Moon 10:49 PM CST (11/23) 11:22 AM CST (11/23)
Length of Visible Light 11h 24m
Length of Day
10h 34m
Waning Gibbous, 69% of the Moon is Illuminated
Nov 23
Waning Gibbous
Nov 25
Last Quarter
Dec 2
New
Dec 9
First Quarter
Dec 17
Full

Hourly Weather History & Observations

Time (CST) Temp. Windchill Dew Point Humidity Pressure Visibility Wind Dir Wind Speed Gust Speed Precip Events Conditions
12:15 AM 40.1 °F 31.3 °F 38.5 °F 94% 30.29 in 5.0 mi NNW 17.3 mph 24.2 mph N/A   Overcast
12:35 AM 39.9 °F 30.5 °F 38.5 °F 95% 30.30 in 3.0 mi NNW 19.6 mph 23.0 mph N/A   Overcast
12:55 AM 39.7 °F 31.2 °F 38.5 °F 95% 30.29 in 3.0 mi NNW 16.1 mph 21.9 mph N/A   Overcast
1:15 AM 39.6 °F 29.2 °F 38.5 °F 96% 30.29 in 4.0 mi North 23.0 mph - N/A   Overcast
1:35 AM 39.6 °F 30.0 °F 38.5 °F 96% 30.30 in 4.0 mi North 19.6 mph 26.5 mph N/A   Overcast
1:55 AM 39.7 °F 30.9 °F 38.5 °F 95% 30.30 in 4.0 mi North 17.3 mph 25.3 mph N/A   Overcast
2:15 AM 39.9 °F 32.1 °F 38.7 °F 95% 30.30 in 3.0 mi NNW 13.8 mph - N/A   Overcast
2:35 AM 39.6 °F 30.3 °F 38.5 °F 96% 30.29 in 3.0 mi NNW 18.4 mph 25.3 mph N/A   Overcast
2:55 AM 39.7 °F 30.6 °F 38.7 °F 96% 30.29 in 3.0 mi North 18.4 mph 23.0 mph N/A   Overcast
3:15 AM 40.1 °F 32.4 °F 38.8 °F 95% 30.29 in 4.0 mi NNW 13.8 mph 23.0 mph N/A   Overcast
3:35 AM 40.1 °F 32.0 °F 39.0 °F 96% 30.29 in 3.0 mi North 15.0 mph 24.2 mph N/A   Overcast
3:55 AM 40.1 °F 31.6 °F 39.2 °F 97% 30.28 in 4.0 mi North 16.1 mph 23.0 mph N/A   Overcast
4:15 AM 40.3 °F 31.6 °F 39.2 °F 96% 30.28 in 4.0 mi North 17.3 mph 21.9 mph N/A   Overcast
4:35 AM 40.3 °F 32.6 °F 39.2 °F 96% 30.29 in 7.0 mi North 13.8 mph 24.2 mph N/A   Overcast
4:55 AM 40.5 °F 30.9 °F 39.4 °F 96% 30.29 in 7.0 mi North 20.7 mph - N/A   Overcast
5:15 AM 40.6 °F 31.7 °F 39.6 °F 96% 30.29 in 5.0 mi North 18.4 mph 23.0 mph N/A   Overcast
5:35 AM 41.0 °F 33.1 °F 39.6 °F 95% 30.29 in 4.0 mi NNW 15.0 mph - N/A   Overcast
5:55 AM 41.0 °F 32.2 °F 39.7 °F 95% 30.31 in 5.0 mi North 18.4 mph - N/A   Overcast
6:15 AM 41.0 °F 32.8 °F 39.7 °F 95% 30.32 in 3.0 mi North 16.1 mph 24.2 mph N/A   Overcast
6:35 AM 41.0 °F 32.2 °F 40.1 °F 97% 30.31 in 2.0 mi North 18.4 mph - N/A Rain Light Rain
6:55 AM 41.2 °F 33.4 °F 40.1 °F 96% 30.33 in 2.5 mi North 15.0 mph 20.7 mph N/A   Unknown
7:15 AM 41.4 °F 32.7 °F 40.3 °F 96% 30.33 in 3.0 mi North 18.4 mph 21.9 mph N/A   Overcast
7:35 AM 41.5 °F 33.8 °F 40.5 °F 96% 30.34 in 4.0 mi North 15.0 mph 21.9 mph N/A   Overcast
7:55 AM 41.9 °F 34.3 °F 40.6 °F 95% 30.35 in 7.0 mi North 15.0 mph - N/A   Overcast
8:15 AM 42.3 °F 34.1 °F 41.0 °F 95% 30.35 in 10.0 mi North 17.3 mph 24.2 mph N/A   Overcast
8:35 AM 42.8 °F 35.4 °F 41.4 °F 95% 30.36 in 10.0 mi North 15.0 mph 25.3 mph N/A   Overcast
8:55 AM 42.8 °F 33.8 °F 41.4 °F 95% 30.35 in 7.0 mi North 21.9 mph - N/A   Overcast
9:15 AM 43.2 °F 34.7 °F 41.7 °F 95% 30.36 in 7.0 mi NNW 19.6 mph 25.3 mph N/A   Overcast
9:35 AM 43.2 °F 35.0 °F 41.5 °F 94% 30.36 in 7.0 mi North 18.4 mph 23.0 mph N/A   Overcast
9:55 AM 43.7 °F 34.7 °F 41.7 °F 93% 30.38 in 10.0 mi North 23.0 mph 26.5 mph N/A   Overcast
10:15 AM 44.1 °F 35.9 °F 41.5 °F 91% 30.38 in 10.0 mi NNW 19.6 mph 24.2 mph N/A   Overcast
10:35 AM 44.4 °F 37.2 °F 42.1 °F 91% 30.37 in 10.0 mi North 16.1 mph 23.0 mph N/A   Overcast
10:55 AM 44.4 °F 36.9 °F 41.7 °F 90% 30.37 in 10.0 mi North 17.3 mph 24.2 mph N/A   Overcast
11:15 AM 45.0 °F 37.1 °F 41.7 °F 88% 30.36 in 10.0 mi North 19.6 mph 25.3 mph N/A   Overcast
11:35 AM 45.0 °F 36.2 °F 41.2 °F 87% 30.36 in 10.0 mi North 24.2 mph 31.1 mph N/A   Overcast
11:55 AM 45.5 °F 37.8 °F 41.9 °F 87% 30.34 in 10.0 mi North 19.6 mph 29.9 mph N/A   Overcast
12:15 PM 45.9 °F 38.8 °F 42.1 °F 87% 30.34 in 10.0 mi North 17.3 mph - N/A   Overcast
12:35 PM 46.0 °F 39.0 °F 42.1 °F 86% 30.33 in 10.0 mi North 17.3 mph 26.5 mph N/A   Overcast
12:55 PM 46.2 °F 38.7 °F 42.1 °F 85% 30.32 in 10.0 mi North 19.6 mph 26.5 mph N/A   Overcast
1:15 PM 46.0 °F 38.3 °F 41.9 °F 85% 30.31 in 10.0 mi North 20.7 mph 26.5 mph N/A   Overcast
1:35 PM 46.4 °F 38.7 °F 41.9 °F 84% 30.31 in 10.0 mi North 20.7 mph 28.8 mph N/A   Overcast
1:55 PM 46.4 °F 38.3 °F 42.1 °F 85% 30.31 in 10.0 mi North 23.0 mph 26.5 mph N/A   Overcast
2:15 PM 46.4 °F 38.7 °F 41.9 °F 84% 30.30 in 10.0 mi North 20.7 mph 28.8 mph N/A   Overcast
2:35 PM 46.4 °F 39.0 °F 42.1 °F 85% 30.30 in 10.0 mi North 19.6 mph 28.8 mph N/A   Overcast
2:55 PM 46.9 °F - 42.4 °F 84% 30.30 in 10.0 mi North 23.0 mph 28.8 mph N/A   Overcast
3:15 PM 46.6 °F - 42.1 °F 84% 30.30 in 10.0 mi North 20.7 mph 26.5 mph N/A   Overcast
3:35 PM 46.4 °F 39.2 °F 41.9 °F 84% 30.30 in 10.0 mi North 18.4 mph 26.5 mph N/A   Overcast
3:55 PM 46.4 °F 40.1 °F 42.1 °F 85% 30.31 in 10.0 mi North 15.0 mph 27.6 mph N/A   Overcast
4:15 PM 45.9 °F 38.5 °F 41.9 °F 86% 30.31 in 10.0 mi North 18.4 mph 25.3 mph N/A   Overcast
4:35 PM 45.7 °F 38.0 °F 41.9 °F 87% 30.32 in 10.0 mi North 19.6 mph - N/A   Overcast
4:55 PM 45.7 °F 38.3 °F 41.7 °F 86% 30.32 in 10.0 mi North 18.4 mph 23.0 mph N/A   Overcast
5:15 PM 45.7 °F 38.6 °F 41.5 °F 85% 30.32 in 10.0 mi North 17.3 mph 23.0 mph N/A   Overcast
5:35 PM 45.5 °F 39.2 °F 41.5 °F 86% 30.33 in 10.0 mi North 13.8 mph - N/A   Overcast
5:55 PM 45.5 °F 38.9 °F 41.4 °F 85% 30.33 in 10.0 mi North 15.0 mph - N/A   Overcast
6:15 PM 45.1 °F 38.1 °F 41.4 °F 87% 30.33 in 10.0 mi North 16.1 mph 20.7 mph N/A   Overcast
6:35 PM 45.1 °F 38.1 °F 41.4 °F 87% 30.34 in 10.0 mi North 16.1 mph 20.7 mph N/A   Overcast
6:55 PM 45.5 °F 39.6 °F 41.9 °F 87% 30.34 in 10.0 mi North 12.7 mph - N/A   Overcast
7:15 PM 45.7 °F 40.2 °F 41.9 °F 87% 30.35 in 10.0 mi North 11.5 mph - N/A   Overcast
7:35 PM 45.7 °F 38.3 °F 41.9 °F 87% 30.35 in 10.0 mi North 18.4 mph 23.0 mph N/A   Overcast
7:55 PM 45.9 °F 38.8 °F 42.3 °F 87% 30.35 in 10.0 mi North 17.3 mph - N/A   Overcast
8:15 PM 45.7 °F 38.6 °F 42.3 °F 88% 30.36 in 10.0 mi North 17.3 mph - N/A   Overcast
8:35 PM 45.9 °F 39.4 °F 42.8 °F 89% 30.36 in 10.0 mi North 15.0 mph 19.6 mph N/A   Overcast
8:55 PM 45.9 °F 38.5 °F 43.5 °F 92% 30.36 in 7.0 mi North 18.4 mph 21.9 mph N/A   Overcast
9:15 PM 45.9 °F 39.4 °F 43.9 °F 93% 30.37 in 5.0 mi North 15.0 mph - N/A   Overcast
9:35 PM 45.9 °F 39.1 °F 44.1 °F 93% 30.37 in 7.0 mi North 16.1 mph 19.6 mph N/A   Overcast
9:55 PM 46.0 °F 39.3 °F 44.4 °F 94% 30.36 in 7.0 mi North 16.1 mph - N/A   Overcast
10:15 PM 46.0 °F 39.6 °F 44.6 °F 95% 30.37 in 7.0 mi North 15.0 mph 19.6 mph N/A   Overcast
10:35 PM 46.4 °F 40.7 °F 44.8 °F 94% 30.37 in 7.0 mi North 12.7 mph 18.4 mph N/A   Overcast
10:55 PM 46.6 °F - 45.1 °F 95% 30.37 in 7.0 mi North 11.5 mph - N/A   Overcast
11:15 PM 47.3 °F - 45.0 °F 92% 30.37 in 10.0 mi NNE 15.0 mph - N/A   Overcast
11:35 PM 47.8 °F - 44.6 °F 89% 30.37 in 10.0 mi NNE 13.8 mph - N/A   Overcast
11:55 PM 48.2 °F - 44.6 °F 87% 30.36 in 10.0 mi North 9.2 mph - N/A   Overcast